Selinsgrove, PA

10:41 PM EDT on May 26, 2017 (GMT -0400)
Penn Valley

Weather History for KSEG - February, 2014

Change the Weather History Date:

Tuesday, February 11, 2014

  Actual Average (KIPT) Record (KIPT)
Temperature  
Mean Temperature 11 °F -  
Max Temperature 24 °F 36 °F 60 °F (2009)
Min Temperature -2 °F 20 °F -17 °F (1899)
Degree Days  
Heating Degree Days 54    
Moisture  
Dew Point 0 °F    
Average Humidity 65    
Maximum Humidity 87    
Minimum Humidity 42    
Precipitation  
Precipitation 0.00 in - - ()
Sea Level Pressure  
Sea Level Pressure 30.43 in    
Wind  
Wind Speed 3 mph (NNW)    
Max Wind Speed 10 mph    
Max Gust Speed -    
Visibility 9 miles    
Events      
Averages and records for this station are not official NWS values.
T = Trace of Precipitation, MM = Missing Value Source: NWS Daily Summary

Daily Weather History Graph

Daily Weather History Graph

Search for Another Location

Airport or City:

Trip Planner

Search our weather history database for the weather conditions in past years. The results will help you decide how hot, cold, wet, or windy it might be!

Date:

Astronomy

Feb. 11, 2014 Rise Set
Actual Time 7:06 AM EST 5:37 PM EST
Civil Twilight 6:38 AM EST 6:05 PM EST
Nautical Twilight 6:06 AM EST 6:37 PM EST
Astronomical Twilight 5:34 AM EST 7:09 PM EST
Moon 2:55 PM EST (2/11) 4:42 AM EST (2/11)
Length of Visible Light 11h 27m
Length of Day
10h 30m
Waxing Gibbous, 90% of the Moon is Illuminated
Feb 11
Waxing Gibbous
Feb 14
Full
Feb 22
Last Quarter
Mar 1
New
Mar 8
First Quarter

Hourly Weather History & Observations

Time (EST) Temp. Windchill Dew Point Humidity Pressure Visibility Wind Dir Wind Speed Gust Speed Precip Events Conditions
12:53 AM 7.0 °F - 1.9 °F 80% 30.35 in 6.0 mi Calm Calm - N/A   Haze
1:53 AM 9.0 °F 2.4 °F 3.9 °F 80% 30.35 in 5.0 mi NNW 3.5 mph - N/A   Haze
2:53 AM 17.1 °F 6.6 °F 3.0 °F 54% 30.35 in 10.0 mi NW 8.1 mph - N/A   Mostly Cloudy
3:53 AM 7.0 °F 0.1 °F 1.9 °F 80% 30.36 in 9.0 mi North 3.5 mph - N/A   Clear
4:53 AM 1.9 °F - -2.0 °F 83% 30.37 in 10.0 mi Calm Calm - N/A   Clear
5:53 AM -0.9 °F - -5.1 °F 83% 30.39 in 9.0 mi Calm Calm - N/A   Clear
6:53 AM -2.0 °F - -5.1 °F 87% 30.41 in 9.0 mi Calm Calm - N/A   Clear
7:53 AM -0.9 °F - -6.0 °F 79% 30.44 in 6.0 mi Calm Calm - N/A   Haze
8:53 AM 5.0 °F - -0.9 °F 76% 30.47 in 6.0 mi Calm Calm - N/A   Haze
9:53 AM 12.9 °F - 3.0 °F 65% 30.47 in 9.0 mi Calm Calm - N/A   Clear
10:53 AM 18.0 °F 9.8 °F 3.0 °F 52% 30.47 in 10.0 mi NNW 5.8 mph - N/A   Partly Cloudy
11:53 AM 19.0 °F 10.0 °F 3.0 °F 50% 30.45 in 10.0 mi NNW 6.9 mph - N/A   Partly Cloudy
12:53 PM 21.0 °F - 3.9 °F 48% 30.42 in 10.0 mi North - - 0.00 in   Scattered Clouds
1:53 PM 24.1 °F 19.7 °F 3.9 °F 42% 30.39 in 9.0 mi Variable 3.5 mph - 0.00 in   Clear
2:53 PM 24.1 °F 13.7 °F 3.9 °F 42% 30.39 in 10.0 mi NNW 10.4 mph - N/A   Clear
3:53 PM 23.0 °F 14.7 °F 3.9 °F 44% 30.40 in 10.0 mi Variable 6.9 mph - 0.00 in   Clear
4:53 PM 21.9 °F 15.7 °F 1.9 °F 42% 30.41 in 10.0 mi NNW 4.6 mph - N/A   Clear
5:53 PM 19.0 °F - 1.9 °F 47% 30.43 in 10.0 mi Calm Calm - N/A   Clear
6:53 PM 14.0 °F 8.2 °F 3.0 °F 62% 30.46 in 10.0 mi NNW 3.5 mph - N/A   Clear
7:53 PM 8.1 °F -2.0 °F -0.9 °F 67% 30.49 in 10.0 mi NNW 5.8 mph - N/A   Clear
8:53 PM 10.0 °F 3.6 °F -0.0 °F 64% 30.51 in 10.0 mi NNE 3.5 mph - N/A   Clear
9:53 PM 5.0 °F - -0.9 °F 76% 30.53 in 10.0 mi Calm Calm - N/A   Clear
10:53 PM 1.9 °F -9.2 °F -2.9 °F 80% 30.54 in 10.0 mi NNW 5.8 mph - N/A   Clear
11:53 PM -2.0 °F - -7.1 °F 79% 30.54 in 10.0 mi Calm Calm - N/A   Clear